This is the latest recevied weather packets stored in our database for station/object HS2XQB-3. If no packets are shown the sender has not sent any weather packets the latest 1 day(s).
| Time | Temp. | Humidity | Pressure | Rain* | Wind** | Luminosity | Snow |
|---|---|---|---|---|---|---|---|
| 1778087089 | 23.89° C | 74% | 1004 hPa | - | - | 0 W/m² | - |
| 1778079802 | 24.44° C | 74% | 1005 hPa | - | - | 0 W/m² | - |
| 1778077978 | 23.89° C | 71% | 1004 hPa | - | - | 0 W/m² | - |
| 1778068866 | 24.44° C | 68% | 1003 hPa | - | - | 0 W/m² | - |
| 1778061577 | 24.44° C | 59% | 1002 hPa | - | - | 0 W/m² | - |
| 1778059755 | 24.44° C | 61% | 1002 hPa | - | - | 0 W/m² | - |
| 1778057932 | 24.44° C | 51% | 1002 hPa | - | - | 0 W/m² | - |
| 1778056110 | 25° C | 45% | 1002 hPa | - | - | 0 W/m² | - |
| 1778054288 | 26.11° C | 44% | 1002 hPa | - | - | 0 W/m² | - |
| 1778052466 | 26.11° C | 44% | 1002 hPa | - | - | 0 W/m² | - |
| 1778045177 | 25° C | 46% | 1004 hPa | - | - | 0 W/m² | - |
| 1778043355 | 25° C | 46% | 1005 hPa | - | - | 0 W/m² | - |
| 1778041533 | 25.56° C | 46% | 1005 hPa | - | - | 0 W/m² | - |
| 1778039711 | 25.56° C | 48% | 1005 hPa | - | - | 0 W/m² | - |
| 1778037889 | 25° C | 45% | 1006 hPa | - | - | 0 W/m² | - |
| 1778036067 | 25° C | 45% | 1006 hPa | - | - | 0 W/m² | - |
| 1778034245 | 25.56° C | 46% | 1006 hPa | - | - | 0 W/m² | - |
| 1778032423 | 25.56° C | 47% | 1006 hPa | - | - | 0 W/m² | - |
| 1778028779 | 25° C | 65% | 1006 hPa | - | - | 0 W/m² | - |
| 1778021490 | 23.89° C | 81% | 1004 hPa | - | - | 0 W/m² | - |
| 1778006913 | 24.44° C | 83% | 1004 hPa | - | - | 0 W/m² | - |
* Rain since midnight (hover to see other rain measurements)
** Current wind speed in m/s (hover to see current wind gust speed)